Overview Statistics Trail Chart Weather Telemetry Raw packets
 

This is the latest recevied weather packets stored in our database for station/object DG1ROH. If no packets are shown the sender has not sent any weather packets the latest 10 day(s).

<< 187 188 189 190 191 192 193 >>
Time Temp. Humidity Pressure Rain* Wind** Luminosity Snow
1777214499 14.44° C 36% 1023.4 hPa 0 mm - 462 W/m² -
1777214379 14.44° C 33% 1023.5 hPa 0 mm - 464 W/m² -
1777214260 14.44° C 33% 1023.4 hPa 0 mm - 469 W/m² -
1777214139 15° C 36% 1023.4 hPa 0 mm - 475 W/m² -
1777214017 14.44° C 35% 1023.4 hPa 0 mm - 478 W/m² -
1777213898 15° C 32% 1023.4 hPa 0 mm - 485 W/m² -
1777213777 15.56° C 37% 1023.4 hPa 0 mm - 487 W/m² -
1777213658 14.44° C 38% 1023.5 hPa 0 mm - 494 W/m² -
1777213537 14.44° C 33% 1023.5 hPa 0 mm - 497 W/m² -
1777213417 14.44° C 34% 1023.5 hPa 0 mm - 503 W/m² -
1777213295 14.44° C 33% 1023.4 hPa 0 mm - 508 W/m² -
1777213173 14.44° C 33% 1023.5 hPa 0 mm - 512 W/m² -
1777213052 14.44° C 32% 1023.5 hPa 0 mm - 515 W/m² -
1777212931 14.44° C 32% 1023.5 hPa 0 mm - 520 W/m² -
1777212811 14.44° C 33% 1023.4 hPa 0 mm - 522 W/m² -
1777212691 14.44° C 33% 1023.4 hPa 0 mm - 527 W/m² -
1777212571 14.44° C 35% 1023.4 hPa 0 mm - 534 W/m² -
1777212450 14.44° C 33% 1023.4 hPa 0 mm - 536 W/m² -
1777212330 14.44° C 34% 1023.4 hPa 0 mm - 541 W/m² -
1777212211 14.44° C 33% 1023.5 hPa 0 mm - 547 W/m² -
1777212091 14.44° C 33% 1023.5 hPa 0 mm - 547 W/m² -
1777211971 14.44° C 31% 1023.5 hPa 0 mm - 550 W/m² -
1777211852 13.89° C 33% 1023.5 hPa 0 mm - 555 W/m² -
1777211730 13.89° C 31% 1023.5 hPa 0 mm - 561 W/m² -
1777211610 14.44° C 34% 1023.6 hPa 0 mm - 563 W/m² -

* Rain latest hour (hover to see other rain measurements)
** Current wind speed in m/s (hover to see current wind gust speed)